Tracking 21082 objects as of 6-Aug-2020
HD Live streaming from Space Station
objects crossing your sky now

RADUGA 20

Track RADUGA 20 now!
RADUGA 20 is classified as:


NORAD ID: 17611
Int'l Code: 1987-028A
Perigee: 36,921.8 km
Apogee: 37,171.8 km
Inclination: 16.1 °
Period: 1,500.6 minutes
Semi major axis: 43417 km
RCS: 2.0634 m2 (large)
Launch date: March 19, 1987
Source: Commonwealth of Independent States (former USSR) (CIS)
Launch site: TYURATAM MISSILE AND SPACE COMPLEX (TTMTR)
aabbcc
Your satellite tracking list
Your tracking list is empty




NASA's NSSDC Master Catalog

Two Line Element Set (TLE):
1 17611U 87028A   20218.31393333 -.00000149  00000-0  00000+0 0  9996
2 17611  16.1250 345.1422 0028788 113.7352 287.3112  0.95962459117742
Source of the keplerian elements: AFSPC